Location: Unspecified
(35.7250°N, 0.0000°E)
Time: 18:59:48
(UTC+00:00)

Explorer 7 - All Passes

Search period start: 18 June 2019 00:00
Search period end: 28 June 2019 00:00
Orbit: 485 x 680 km, 50.3° (Epoch: 18 June)

Date Brightness Start Highest point End Pass type
(mag) Time Alt. Az. Time Alt. Az. Time Alt. Az.
18 Jun - 08:20:38 10° S 08:23:47 20° SE 08:27:04 10° E daylight
18 Jun - 09:59:40 10° WSW 10:03:59 58° NW 10:08:35 10° NE daylight
18 Jun - 11:42:13 10° WNW 11:45:25 18° NNW 11:48:44 10° NNE daylight
18 Jun - 13:25:03 10° NNW 13:27:36 14° N 13:30:11 10° NE daylight
18 Jun - 15:05:28 10° NNW 15:09:35 26° NNE 15:13:43 10° E daylight
18 Jun - 16:45:42 10° NW 16:50:38 76° SW 16:55:30 10° SE daylight
18 Jun - 18:29:07 10° WSW 18:30:35 11° SW 18:32:03 10° SW daylight
19 Jun - 08:24:47 10° SSW 08:28:38 35° SE 08:32:44 10° ENE daylight
19 Jun - 10:05:05 10° W 10:09:11 38° NNW 10:13:33 10° NE daylight
19 Jun - 11:48:08 10° NW 11:50:53 15° N 11:53:44 10° NNE daylight
19 Jun - 13:30:16 10° NNW 13:33:06 15° N 13:35:59 10° NE daylight
19 Jun - 15:10:23 10° NW 15:14:52 36° NNE 15:19:24 10° E daylight
19 Jun - 16:50:55 10° WNW 16:55:37 46° SW 17:00:17 10° SSE daylight
20 Jun - 08:29:26 10° SW 08:33:35 61° SE 08:38:03 10° ENE daylight
20 Jun - 10:10:42 10° W 10:14:29 27° NNW 10:18:27 10° NNE daylight
20 Jun - 11:53:58 10° NW 11:56:24 14° N 11:58:53 10° NNE daylight
20 Jun - 13:35:18 10° NNW 13:38:35 18° NNE 13:41:55 10° ENE daylight
20 Jun - 15:15:19 10° NW 15:20:05 52° NE 15:24:53 10° ESE daylight
20 Jun - 16:56:23 10° WNW 17:00:33 28° SW 17:04:41 10° S daylight
21 Jun - 06:56:42 10° SSE 06:58:40 13° SE 07:00:42 10° E daylight
21 Jun - 08:34:24 10° SW 08:38:38 79° NW 08:43:11 10° NE daylight
21 Jun - 10:16:29 10° WNW 10:19:51 20° NNW 10:23:21 10° NNE daylight
21 Jun - 11:59:37 10° NNW 12:01:56 13° N 12:04:17 10° NNE daylight
21 Jun - 13:40:15 10° NNW 13:44:00 22° NNE 13:47:49 10° ENE daylight
21 Jun - 15:20:20 10° NW 15:25:14 80° NE 15:30:09 10° SE daylight
21 Jun - 17:02:18 10° W 17:05:24 17° SW 17:08:28 10° SSW daylight
22 Jun - 07:00:11 10° S 07:03:29 23° SE 07:06:56 10° ENE daylight
22 Jun - 08:39:39 10° WSW 08:43:46 49° NW 08:48:10 10° NE daylight
22 Jun - 10:22:23 10° NW 10:25:16 17° NNW 10:28:16 10° NNE daylight
22 Jun - 12:04:58 10° NNW 12:07:28 14° N 12:09:59 10° NE daylight
22 Jun - 13:45:10 10° NNW 13:49:21 29° NNE 13:53:36 10° E daylight
22 Jun - 15:25:26 10° NW 15:30:17 65° SW 15:35:08 10° SE daylight
23 Jun - 07:04:30 10° SSW 07:08:22 41° SE 07:12:29 10° ENE daylight
23 Jun - 08:45:08 10° W 08:49:00 32° NNW 08:53:06 10° NE daylight
23 Jun - 10:28:19 10° NW 10:30:46 14° N 10:33:17 10° NNE daylight
23 Jun - 12:10:06 10° NNW 12:12:57 16° NNE 12:15:52 10° NE daylight
23 Jun - 13:50:04 10° NW 13:54:37 40° NNE 13:59:14 10° ESE daylight
23 Jun - 15:30:43 10° WNW 15:35:16 39° SW 15:39:48 10° SSE daylight
24 Jun - 07:09:16 10° SW 07:13:21 73° SE 07:17:43 10° NE daylight
24 Jun - 08:50:50 10° WNW 08:54:19 23° NNW 08:58:00 10° NNE daylight
24 Jun - 10:34:07 10° NNW 10:36:17 13° N 10:38:29 10° NNE daylight
24 Jun - 12:15:05 10° NNW 12:18:24 19° NNE 12:21:48 10° ENE daylight
24 Jun - 13:55:02 10° NW 13:59:47 59° NE 14:04:39 10° ESE daylight
24 Jun - 15:36:17 10° WNW 15:40:10 24° SW 15:44:03 10° S daylight
25 Jun - 05:35:59 10° SSE 05:38:22 15° SE 05:40:50 10° E daylight
25 Jun - 07:14:20 10° WSW 07:18:25 66° NW 07:22:48 10° NE daylight
25 Jun - 08:56:41 10° WNW 08:59:42 18° NNW 09:02:52 10° NNE daylight
25 Jun - 10:39:40 10° NNW 10:41:49 13° N 10:43:59 10° NNE daylight
25 Jun - 12:20:00 10° NNW 12:23:48 23° NNE 12:27:42 10° ENE daylight
25 Jun - 14:00:04 10° NW 14:04:54 89° SW 14:09:49 10° SE daylight
25 Jun - 15:42:31 10° W 15:45:00 14° SW 15:47:29 10° SSW daylight
26 Jun - 05:39:49 10° S 05:43:13 27° SE 05:46:47 10° ENE daylight
26 Jun - 07:19:41 10° WSW 07:23:35 41° NNW 07:27:46 10° NE daylight
26 Jun - 09:02:37 10° NW 09:05:09 15° NNW 09:07:47 10° NNE daylight
26 Jun - 10:44:55 10° NNW 10:47:20 14° N 10:49:47 10° NE daylight
26 Jun - 12:24:53 10° NW 12:29:06 31° NNE 12:33:26 10° E daylight
26 Jun - 14:05:13 10° WNW 14:09:55 55° SW 14:14:43 10° SSE daylight
27 Jun - 05:44:17 10° SSW 05:48:07 48° SE 05:52:13 10° ENE daylight
27 Jun - 07:25:14 10° W 07:28:51 28° NNW 07:32:40 10° NNE daylight
27 Jun - 09:08:33 10° NW 09:10:39 13° N 09:12:48 10° NNE daylight
27 Jun - 10:49:57 10° NNW 10:52:48 16° NNE 10:55:43 10° NE daylight
27 Jun - 12:29:48 10° NW 12:34:20 44° NNE 12:39:01 10° ESE daylight
27 Jun - 14:10:35 10° WNW 14:14:53 33° SW 14:19:15 10° SSE daylight
